timestamp,wind_dir_avg,wind_spd_avg,wind_spd_max_dir,wind_spd_gust,battery_voltage,lat,long
2022-11-14 00:04:00+00:00,53.0,5.86,54.0,6.56,12.49,47.59359,-54.27349
2022-11-14 00:14:00+00:00,54.0,5.54,57.0,6.45,12.41,47.59359,-54.27349
2022-11-14 00:24:00+00:00,79.0,2.9,76.0,3.79,12.41,47.59359,-54.27349
2022-11-14 00:34:00+00:00,72.0,3.67,73.0,4.94,12.41,47.59359,-54.27349
2022-11-14 00:44:00+00:00,77.0,2.37,64.0,3.34,12.41,47.59359,-54.27349
2022-11-14 00:54:00+00:00,72.0,3.44,77.0,4.77,12.41,47.59359,-54.27349
2022-11-14 01:04:00+00:00,59.0,5.29,58.0,6.07,12.41,47.59359,-54.27349
2022-11-14 01:14:00+00:00,75.0,4.88,73.0,5.49,12.41,47.59359,-54.27349
2022-11-14 01:24:00+00:00,73.0,4.58,64.0,5.51,12.41,47.59359,-54.27349
2022-11-14 01:34:00+00:00,70.0,4.31,67.0,5.48,12.41,47.59359,-54.27349
2022-11-14 01:44:00+00:00,62.0,5.01,64.0,5.86,12.41,47.59359,-54.27349
2022-11-14 01:54:00+00:00,71.0,3.66,79.0,4.82,12.41,47.59359,-54.27349
2022-11-14 02:04:00+00:00,73.0,3.94,74.0,5.19,12.41,47.59359,-54.27349
2022-11-14 02:14:00+00:00,75.0,3.68,72.0,5.0,12.41,47.59359,-54.27349
2022-11-14 02:24:00+00:00,72.0,4.26,78.0,5.82,12.41,47.59359,-54.27349
2022-11-14 02:34:00+00:00,86.0,3.57,96.0,5.1,12.41,47.59359,-54.27349
2022-11-14 02:44:00+00:00,76.0,3.75,70.0,5.06,12.41,47.59359,-54.27349
2022-11-14 02:54:00+00:00,80.0,3.51,67.0,4.84,12.41,47.59359,-54.27349
2022-11-14 03:04:00+00:00,81.0,3.43,100.0,4.82,12.41,47.59359,-54.27349
2022-11-14 03:14:00+00:00,73.0,4.54,61.0,6.03,12.41,47.59359,-54.27349
2022-11-14 03:24:00+00:00,75.0,2.97,81.0,4.51,12.41,47.59359,-54.27349
2022-11-14 03:34:00+00:00,76.0,3.66,51.0,5.08,12.41,47.59359,-54.27349
2022-11-14 03:44:00+00:00,90.0,3.69,104.0,5.52,12.41,47.59359,-54.27349
2022-11-14 03:54:00+00:00,81.0,3.95,119.0,5.17,12.41,47.59359,-54.27349
2022-11-14 04:04:00+00:00,83.0,4.71,77.0,6.22,12.41,47.59359,-54.27349
2022-11-14 04:14:00+00:00,78.0,4.22,74.0,6.48,12.33,47.59359,-54.27349
2022-11-14 04:24:00+00:00,79.0,4.49,88.0,6.75,12.33,47.59359,-54.27349
2022-11-14 04:34:00+00:00,112.0,3.92,133.0,5.7,12.33,47.59359,-54.27349
2022-11-14 04:44:00+00:00,109.0,4.28,101.0,6.78,12.33,47.59359,-54.27349
2022-11-14 04:54:00+00:00,99.0,3.3,81.0,6.03,12.33,47.59359,-54.27349
2022-11-14 05:04:00+00:00,120.0,5.04,124.0,6.44,12.33,47.59359,-54.27349
2022-11-14 05:14:01+00:00,96.0,4.45,93.0,6.85,12.41,47.59359,-54.27349
2022-11-14 05:24:01+00:00,77.0,4.72,81.0,6.78,12.41,47.59359,-54.27349
2022-11-14 05:34:01+00:00,88.0,3.46,96.0,4.86,12.41,47.59359,-54.27349
2022-11-14 05:44:01+00:00,88.0,4.07,120.0,6.26,12.41,47.59359,-54.27349
2022-11-14 05:54:01+00:00,93.0,4.16,88.0,6.8,12.41,47.59359,-54.27349
2022-11-14 06:04:01+00:00,88.0,4.4,115.0,7.64,12.41,47.59359,-54.27349
2022-11-14 06:14:00+00:00,103.0,5.27,122.0,7.27,12.33,47.59359,-54.27349
2022-11-14 06:24:00+00:00,99.0,4.62,102.0,6.56,12.33,47.59359,-54.27349
2022-11-14 06:34:00+00:00,85.0,4.71,82.0,7.4,12.33,47.59359,-54.27349
2022-11-14 06:44:00+00:00,94.0,5.26,101.0,9.39,12.33,47.59359,-54.27349
2022-11-14 06:54:00+00:00,95.0,5.43,86.0,8.26,12.33,47.59359,-54.27349
2022-11-14 07:04:00+00:00,92.0,5.53,69.0,8.32,12.33,47.59359,-54.27349
2022-11-14 07:14:01+00:00,91.0,4.85,78.0,8.07,12.33,47.59359,-54.27349
2022-11-14 07:24:01+00:00,103.0,5.38,109.0,9.12,12.33,47.59359,-54.27349
2022-11-14 07:34:01+00:00,94.0,5.99,105.0,8.5,12.33,47.59359,-54.27349
2022-11-14 07:44:01+00:00,103.0,4.74,117.0,7.05,12.33,47.59359,-54.27349
2022-11-14 07:54:01+00:00,113.0,3.85,118.0,6.71,12.33,47.59359,-54.27349
2022-11-14 08:04:01+00:00,122.0,5.97,120.0,8.13,12.33,47.59359,-54.27349
2022-11-14 08:14:00+00:00,98.0,4.18,93.0,6.83,12.33,47.59359,-54.27349
2022-11-14 08:24:00+00:00,118.0,5.16,128.0,7.53,12.33,47.59359,-54.27349
2022-11-14 08:34:00+00:00,88.0,3.47,79.0,5.9,12.33,47.59359,-54.27349
2022-11-14 08:44:00+00:00,101.0,5.98,122.0,8.65,12.33,47.59359,-54.27349
2022-11-14 08:54:00+00:00,104.0,4.68,95.0,7.6,12.33,47.59359,-54.27349
2022-11-14 09:04:00+00:00,91.0,5.18,125.0,9.07,12.33,47.59359,-54.27349
2022-11-14 09:14:00+00:00,92.0,4.61,83.0,7.54,12.33,47.59359,-54.27349
2022-11-14 09:24:00+00:00,105.0,5.07,125.0,8.99,12.33,47.59359,-54.27349
2022-11-14 09:34:00+00:00,111.0,5.19,133.0,7.95,12.33,47.59359,-54.27349
2022-11-14 09:44:00+00:00,92.0,5.13,123.0,8.12,12.33,47.59359,-54.27349
2022-11-14 09:54:00+00:00,102.0,4.87,125.0,8.36,12.33,47.59359,-54.27349
2022-11-14 10:04:00+00:00,95.0,4.38,104.0,7.46,12.33,47.59359,-54.27349
2022-11-14 10:14:00+00:00,96.0,5.65,121.0,9.31,12.33,47.59359,-54.27349
2022-11-14 10:24:00+00:00,112.0,6.82,102.0,9.95,12.33,47.59359,-54.27349
2022-11-14 10:34:00+00:00,98.0,5.46,113.0,9.04,12.33,47.59359,-54.27349
2022-11-14 10:44:00+00:00,97.0,6.15,70.0,10.29,12.33,47.59359,-54.27349
2022-11-14 10:54:00+00:00,100.0,6.61,112.0,10.51,12.33,47.59359,-54.27349
2022-11-14 11:04:00+00:00,99.0,7.07,91.0,10.89,12.33,47.59359,-54.27349
2022-11-14 11:14:00+00:00,98.0,6.46,75.0,10.39,12.33,47.59359,-54.27349
2022-11-14 11:24:00+00:00,100.0,4.88,119.0,9.15,12.33,47.59359,-54.27349
2022-11-14 11:34:00+00:00,118.0,7.55,124.0,10.28,12.33,47.59359,-54.27349
2022-11-14 11:44:00+00:00,120.0,9.23,129.0,11.14,12.33,47.59359,-54.27349
2022-11-14 11:54:00+00:00,113.0,7.43,128.0,10.56,12.33,47.59359,-54.27349
2022-11-14 12:04:00+00:00,114.0,8.35,127.0,11.54,12.33,47.59359,-54.27349
2022-11-14 12:14:00+00:00,105.0,6.53,105.0,12.38,12.33,47.59359,-54.27349
2022-11-14 12:24:00+00:00,101.0,5.58,121.0,10.55,12.33,47.59359,-54.27349
2022-11-14 12:34:00+00:00,95.0,6.13,68.0,10.07,12.33,47.59359,-54.27349
2022-11-14 12:44:00+00:00,99.0,6.5,102.0,10.19,12.33,47.59359,-54.27349
2022-11-14 12:54:00+00:00,94.0,5.31,114.0,9.23,12.33,47.59359,-54.27349
2022-11-14 13:04:00+00:00,92.0,7.2,106.0,10.89,12.33,47.59359,-54.27349
2022-11-14 13:14:01+00:00,99.0,8.25,96.0,12.55,12.49,47.59359,-54.27349
2022-11-14 13:24:01+00:00,96.0,7.2,114.0,10.46,12.49,47.59359,-54.27349
2022-11-14 13:34:01+00:00,109.0,8.23,110.0,13.71,12.49,47.59359,-54.27349
2022-11-14 13:44:01+00:00,93.0,6.06,84.0,10.37,12.49,47.59359,-54.27349
2022-11-14 13:54:01+00:00,101.0,6.75,131.0,11.05,12.49,47.59359,-54.27349
2022-11-14 14:04:01+00:00,97.0,5.57,113.0,8.42,12.49,47.59359,-54.27349
2022-11-14 14:14:01+00:00,96.0,6.75,104.0,9.98,12.65,47.59359,-54.27349
2022-11-14 14:24:01+00:00,101.0,5.8,119.0,9.96,12.65,47.59359,-54.27349
2022-11-14 14:34:01+00:00,101.0,5.64,105.0,8.19,12.65,47.59359,-54.27349
2022-11-14 14:44:01+00:00,99.0,5.03,125.0,7.4,12.65,47.59359,-54.27349
2022-11-14 14:54:01+00:00,95.0,5.81,108.0,9.34,12.65,47.59359,-54.27349
2022-11-14 15:04:01+00:00,94.0,6.11,98.0,9.34,12.65,47.59359,-54.27349
2022-11-14 15:14:01+00:00,96.0,7.3,87.0,10.16,12.65,47.59359,-54.27349
2022-11-14 15:24:01+00:00,99.0,6.83,92.0,9.05,12.65,47.59359,-54.27349
2022-11-14 15:34:01+00:00,100.0,6.55,113.0,9.34,12.65,47.59359,-54.27349
2022-11-14 15:44:01+00:00,98.0,6.08,122.0,8.9,12.65,47.59359,-54.27349
2022-11-14 15:54:01+00:00,99.0,4.38,78.0,7.44,12.65,47.59359,-54.27349
2022-11-14 16:04:01+00:00,103.0,4.27,66.0,7.89,12.65,47.59359,-54.27349
2022-11-14 16:14:00+00:00,105.0,3.51,119.0,6.08,12.65,47.59359,-54.27349
2022-11-14 16:24:00+00:00,111.0,3.71,72.0,6.52,12.65,47.59359,-54.27349
2022-11-14 16:34:00+00:00,108.0,4.39,123.0,8.61,12.65,47.59359,-54.27349
2022-11-14 16:44:00+00:00,123.0,4.21,124.0,9.19,12.65,47.59359,-54.27349
2022-11-14 16:54:00+00:00,124.0,6.02,99.0,10.26,12.65,47.59359,-54.27349
2022-11-14 17:04:00+00:00,127.0,4.7,132.0,5.27,12.65,47.59359,-54.27349
2022-11-14 17:14:01+00:00,124.0,4.29,120.0,5.98,12.73,47.59359,-54.27349
2022-11-14 17:24:01+00:00,124.0,4.26,110.0,6.58,12.73,47.59359,-54.27349
2022-11-14 17:34:01+00:00,124.0,4.86,122.0,5.77,12.73,47.59359,-54.27349
2022-11-14 17:44:01+00:00,132.0,5.16,120.0,6.95,12.73,47.59359,-54.27349
2022-11-14 17:54:01+00:00,161.0,2.59,158.0,3.49,12.73,47.59359,-54.27349
2022-11-14 18:04:01+00:00,129.0,5.11,132.0,7.26,12.73,47.59359,-54.27349
2022-11-14 18:14:01+00:00,131.0,6.69,126.0,8.05,12.65,47.59359,-54.27349
2022-11-14 18:24:01+00:00,124.0,5.7,121.0,7.41,12.65,47.59359,-54.27349
2022-11-14 18:34:01+00:00,140.0,7.17,141.0,8.95,12.65,47.59359,-54.27349
2022-11-14 18:44:01+00:00,174.0,6.38,165.0,8.01,12.65,47.59359,-54.27349
2022-11-14 18:54:01+00:00,182.0,6.45,183.0,7.83,12.65,47.59359,-54.27349
2022-11-14 19:04:01+00:00,182.0,13.43,184.0,15.34,12.65,47.59359,-54.27349
2022-11-14 19:14:01+00:00,214.0,12.54,209.0,14.52,12.57,47.59359,-54.27349
2022-11-14 19:24:01+00:00,224.0,9.7,225.0,12.35,12.57,47.59359,-54.27349
2022-11-14 19:34:01+00:00,234.0,10.1,233.0,14.6,12.57,47.59359,-54.27349
2022-11-14 19:44:01+00:00,250.0,12.03,253.0,13.56,12.57,47.59359,-54.27349
2022-11-14 19:54:01+00:00,254.0,12.03,254.0,16.22,12.57,47.59359,-54.27349
2022-11-14 20:04:01+00:00,249.0,11.21,247.0,12.09,12.57,47.59359,-54.27349
2022-11-14 20:14:01+00:00,247.0,10.25,248.0,11.54,12.33,47.59359,-54.27349
2022-11-14 20:24:01+00:00,246.0,8.55,250.0,10.18,12.33,47.59359,-54.27349
2022-11-14 20:34:01+00:00,237.0,7.68,241.0,9.47,12.33,47.59359,-54.27349
2022-11-14 20:44:01+00:00,236.0,10.58,232.0,13.76,12.33,47.59359,-54.27349
2022-11-14 20:54:01+00:00,232.0,10.73,236.0,12.33,12.33,47.59359,-54.27349
2022-11-14 21:04:01+00:00,232.0,10.87,235.0,12.4,12.33,47.59359,-54.27349
2022-11-14 21:14:01+00:00,235.0,12.25,230.0,14.32,12.33,47.59359,-54.27349
2022-11-14 21:24:01+00:00,242.0,14.21,238.0,16.59,12.33,47.59359,-54.27349
2022-11-14 21:34:01+00:00,245.0,11.53,243.0,12.84,12.33,47.59359,-54.27349
2022-11-14 21:44:01+00:00,240.0,12.96,239.0,16.07,12.33,47.59359,-54.27349
2022-11-14 21:54:01+00:00,239.0,14.54,237.0,16.8,12.33,47.59359,-54.27349
2022-11-14 22:04:01+00:00,244.0,13.87,251.0,16.9,12.33,47.59359,-54.27349
2022-11-14 22:14:01+00:00,243.0,13.66,242.0,16.87,12.33,47.59359,-54.27349
2022-11-14 22:24:01+00:00,241.0,12.54,235.0,15.41,12.33,47.59359,-54.27349
2022-11-14 22:34:01+00:00,247.0,12.3,252.0,13.74,12.33,47.59359,-54.27349
2022-11-14 22:44:01+00:00,248.0,12.51,255.0,15.02,12.33,47.59359,-54.27349
2022-11-14 22:54:01+00:00,243.0,13.2,245.0,14.71,12.33,47.59359,-54.27349
2022-11-14 23:04:01+00:00,243.0,13.92,243.0,15.59,12.33,47.59359,-54.27349
2022-11-14 23:14:01+00:00,244.0,13.48,240.0,15.5,12.25,47.59359,-54.27349
2022-11-14 23:24:01+00:00,247.0,13.7,248.0,15.35,12.25,47.59359,-54.27349
2022-11-14 23:34:01+00:00,245.0,14.77,248.0,20.51,12.25,47.59359,-54.27349
2022-11-14 23:44:01+00:00,249.0,14.32,240.0,16.32,12.25,47.59359,-54.27349
2022-11-14 23:54:01+00:00,244.0,14.42,247.0,16.96,12.25,47.59359,-54.27349
